Regional Weather Roundup
Issued by NWS

Home | Current Version | Previous Version | Graphics & Text | Print | Product List | Glossary On
Versions: 1 2 3 4 5 6 7 8 9 10 11 12 13 14 15 16 17 18 19 20 21 22 23 24 25 26 27 28 29 30 31 32 33 34 35 36 37 38 39 40 41 42 43 44 45 46 47 48 49 50
000
ASUS43 KOAX 300410
RWRNE

WEATHER ROUNDUP FOR NEBRASKA
NATIONAL WEATHER SERVICE OMAHA NE
1100 PM CDT WED MAR 29 2017

NOTES: SATELLITE DATA IS BEING USED TO AUGMENT CLOUD COVER ABOVE
       12000 FEET.
       "FAIR" INDICATES FEW OR NO CLOUDS BELOW 12,000 FEET WITH NO
       SIGNIFICANT WEATHER AND/OR OBSTRUCTIONS TO VISIBILITY.

  * THESE STATIONS DO NOT REPORT WEATHER SUCH AS RAIN...SNOW OR FOG.

NEZ001>004-019>022-054>056-300500-
NEBRASKA PANHANDLE

CITY           SKY/WX    TMP DP  RH WIND       PRES   REMARKS
SCOTTSBLUFF    CLEAR     39  35  86 SE6       29.96R WCI  35
ALLIANCE       CLEAR     34  32  92 SE3       29.94S
CHADRON        CLEAR     44  37  76 CALM      29.94S
KIMBALL        CLEAR     35  35 100 SE6       29.97S WCI  30
SIDNEY         CLEAR     30  30 100 CALM      29.96S
$$

NEZ057>060-069>072-079>082-300500-
SOUTHWEST NEBRASKA

CITY           SKY/WX    TMP DP  RH WIND       PRES   REMARKS
NORTH PLATTE   CLOUDY    40  35  83 NE10      29.92F WCI  33
IMPERIAL       CLEAR     37  34  89 NW9       29.93F WCI  30
LEXINGTON      CLOUDY    40  37  89 N21       29.89F WCI  30
MCCOOK         MOCLDY    40  38  93 N10       29.90S WCI  33
OGALLALA       CLEAR     37  35  92 N8        29.94F WCI  31
$$

NEZ005>010-023>029-035>040-094-300500-
NORTH CENTRAL NEBRASKA

CITY           SKY/WX    TMP DP  RH WIND       PRES   REMARKS
VALENTINE      CLOUDY    42  34  73 E8        29.96F
AINSWORTH      CLOUDY    40  37  92 NE9       29.96F WCI  33
BROKEN BOW     LGT RAIN  39  36  89 NE13      29.91F WCI  31
O`NEILL        CLOUDY    38  37  98 NE9       29.96F WCI  31
ORD            CLOUDY    39  35  86 N15       29.90F WCI  31
THEDFORD       CLOUDY    41  37  88 NE8       29.95F
$$

NEZ041-046>049-061>064-073>077-083>087-300500-
SOUTH CENTRAL NEBRASKA

CITY           SKY/WX    TMP DP  RH WIND       PRES   REMARKS
GRAND ISLAND   CLOUDY    38  38 100 N18G29    29.85S WCI  28
AURORA         RAIN      38  38 100 N20       29.82S WCI  29
HASTINGS       CLOUDY    39  37  92 N21G29    29.83S WCI  29
HEBRON         LGT RAIN  40  39  94 N16G23    29.75F WCI  32
HOLDREGE       RAIN      38  36  92 N18       29.85F WCI  29
KEARNEY *      MOCLDY    37  34  87 N21       29.86F WCI  27
YORK           CLOUDY    39  39 100 NE21G26   29.81F WCI  29
$$

NEZ011>018-030>034-042>045-300500-
NORTHEAST NEBRASKA

CITY           SKY/WX    TMP DP  RH WIND       PRES   REMARKS
NORFOLK        LGT RAIN  39  36  89 NE13      29.88F WCI  31
ALBION         CLOUDY    39  36  89 N9        29.89F WCI  33
BLAIR          DRIZZLE   42  39  91 NE21G31   29.80S
FREMONT        CLOUDY    42  40  93 NE14G21   29.83F
TEKAMAH        CLOUDY    42  38  85 NE15G24   29.84R
WAYNE          CLOUDY    40  39  96 NE16      29.90S WCI  31
$$

NEZ050>053-065>068-078-088>093-300500-
SOUTHEAST NEBRASKA

CITY           SKY/WX    TMP DP  RH WIND       PRES   REMARKS
LINCOLN        LGT RAIN  42  41  96 NE18      29.76F FOG
OMAHA EPPLEY   CLOUDY    44  38  79 NE16G29   29.81S
BEATRICE       MIX PCPN  42  42  99 NE15G21   29.71F
FALLS CITY     CLOUDY    49  48  97 NE9       29.68F
NEBRASKA CITY  CLOUDY    43  43 100 NE14      29.73F
PLATTSMOUTH    LGT RAIN  43  39  88 NE18G25   29.74F
$$

NEZ044-045-051>053-067-300500-
OMAHA AREA

CITY           SKY/WX    TMP DP  RH WIND       PRES   REMARKS
OMAHA EPPLEY   CLOUDY    44  38  79 NE16G29   29.81S
BLAIR          DRIZZLE   42  39  91 NE21G31   29.80S
FREMONT        CLOUDY    42  40  93 NE14G21   29.83F
MILLARD        CLOUDY    45  41  87 NE8G17    29.80F
OFFUTT AFB     LGT RAIN  43  40  89 NE18G25   29.77F
PLATTSMOUTH    LGT RAIN  43  39  88 NE18G25   29.74F
WAHOO          CLOUDY    41  39  92 NE20      29.80S
$$



USA.gov is the U.S. government's official web portal to all federal, state and local government web resources and services.